• In Deutschland
  • Länderverzeichnis
  • Für 7 Tage
  • Wassertemperatur
  • Satellitenkarten
  • Wetterkarte
  • Widgets
  • user-avatar
    Anmelden

    Stündliche Wetter Prutz

    Heute, 23 Juli, Sonntag

    Zeit Temperatur Niederschläge Wind Luftdruck Luftfeuchtigkeit
    00:00 +14°C° 1,2 mm 1 m/S 636 mmHg 92%
    01:00 +14°C° 1,2 mm 1 m/S 636 mmHg 93%
    02:00 +13°C° 0,6 mm 1 m/S 636 mmHg 92%
    03:00 +13°C° 0,6 mm 1 m/S 636 mmHg 92%
    04:00 +12°C° 0,6 mm 0 m/S 636 mmHg 92%
    05:00 +13°C° 0 mm 0 m/S 636 mmHg 89%
    06:00 +13°C° 0 mm 0 m/S 636 mmHg 86%
    07:00 +14°C° 0 mm 0 m/S 637 mmHg 83%
    08:00 +16°C° 0,1 mm 1 m/S 637 mmHg 78%
    09:00 +18°C° 0,1 mm 1 m/S 637 mmHg 74%
    10:00 +19°C° 0,1 mm 1 m/S 637 mmHg 69%
    11:00 +19°C° 0,5 mm 1 m/S 637 mmHg 72%
    12:00 +19°C° 0,5 mm 1 m/S 637 mmHg 75%
    13:00 +18°C° 0,5 mm 2 m/S 637 mmHg 78%
    14:00 +17°C° 0,8 mm 2 m/S 637 mmHg 80%
    15:00 +17°C° 0,8 mm 2 m/S 637 mmHg 83%
    16:00 +16°C° 0,8 mm 2 m/S 636 mmHg 86%
    17:00 +16°C° 0,5 mm 2 m/S 636 mmHg 88%
    18:00 +15°C° 0,5 mm 1 m/S 636 mmHg 90%
    19:00 +15°C° 0,5 mm 1 m/S 636 mmHg 92%
    20:00 +14°C° 0,4 mm 1 m/S 636 mmHg 94%
    21:00 +14°C° 0,4 mm 1 m/S 636 mmHg 95%
    22:00 +13°C° 0,4 mm 1 m/S 635 mmHg 97%
    23:00 +13°C° 0,3 mm 1 m/S 635 mmHg 97%

    Morgen, 24 Juli, Montag

    Zeit Temperatur Niederschläge Wind Luftdruck Luftfeuchtigkeit
    00:00 +13°C° 0,3 mm 1 m/S 635 mmHg 97%
    01:00 +12°C° 0,3 mm 1 m/S 634 mmHg 97%
    02:00 +12°C° 0,6 mm 1 m/S 634 mmHg 97%
    03:00 +12°C° 0,6 mm 1 m/S 633 mmHg 97%
    04:00 +10°C° 0,6 mm 0 m/S 632 mmHg 97%
    05:00 +11°C° 0,4 mm 0 m/S 632 mmHg 94%
    06:00 +12°C° 0,4 mm 0 m/S 632 mmHg 92%
    07:00 +13°C° 0,4 mm 0 m/S 632 mmHg 89%
    08:00 +15°C° 0,9 mm 1 m/S 632 mmHg 87%
    09:00 +15°C° 0,9 mm 1 m/S 632 mmHg 85%
    10:00 +15°C° 0,9 mm 1 m/S 631 mmHg 82%
    11:00 +15°C° 1,9 mm 1 m/S 631 mmHg 86%
    12:00 +14°C° 1,9 mm 1 m/S 631 mmHg 89%
    13:00 +13°C° 1,9 mm 1 m/S 630 mmHg 92%
    14:00 +13°C° 3,2 mm 2 m/S 630 mmHg 93%
    15:00 +12°C° 3,2 mm 2 m/S 630 mmHg 95%
    16:00 +12°C° 3,2 mm 2 m/S 630 mmHg 96%
    17:00 +10°C° 2 mm 2 m/S 630 mmHg 96%
    18:00 +10°C° 2 mm 2 m/S 630 mmHg 97%
    19:00 +9°C° 2 mm 3 m/S 630 mmHg 97%
    20:00 +9°C° 0,7 mm 2 m/S 630 mmHg 97%
    21:00 +8°C° 0,7 mm 2 m/S 630 mmHg 97%
    22:00 +8°C° 0,7 mm 2 m/S 630 mmHg 96%
    23:00 +7°C° 0,2 mm 2 m/S 630 mmHg 96%

    übermorgen, 25 Juli, Dienstag

    Zeit Temperatur Niederschläge Wind Luftdruck Luftfeuchtigkeit
    00:00 +7°C° 0,2 mm 2 m/S 629 mmHg 96%
    01:00 +7°C° 0,2 mm 2 m/S 629 mmHg 95%
    02:00 +6°C° 0 mm 2 m/S 629 mmHg 95%
    03:00 +6°C° 0 mm 2 m/S 628 mmHg 95%
    04:00 +5°C° 0 mm 2 m/S 628 mmHg 95%
    05:00 +6°C° 0,1 mm 2 m/S 628 mmHg 93%
    06:00 +7°C° 0,1 mm 2 m/S 628 mmHg 91%
    07:00 +7°C° 0,1 mm 2 m/S 628 mmHg 89%
    08:00 +9°C° 0,1 mm 2 m/S 629 mmHg 83%
    09:00 +10°C° 0,1 mm 2 m/S 629 mmHg 77%
    10:00 +12°C° 0,1 mm 2 m/S 629 mmHg 71%
    11:00 +12°C° 0,2 mm 2 m/S 629 mmHg 69%
    12:00 +13°C° 0,2 mm 2 m/S 629 mmHg 67%
    13:00 +12°C° 0,2 mm 3 m/S 629 mmHg 65%
    14:00 +12°C° 0,3 mm 3 m/S 629 mmHg 66%
    15:00 +12°C° 0,3 mm 3 m/S 629 mmHg 67%
    16:00 +12°C° 0,3 mm 3 m/S 629 mmHg 68%
    17:00 +12°C° 0,4 mm 2 m/S 629 mmHg 73%
    18:00 +10°C° 0,4 mm 2 m/S 629 mmHg 77%
    19:00 +9°C° 0,4 mm 2 m/S 628 mmHg 81%
    20:00 +8°C° 0,2 mm 2 m/S 628 mmHg 85%
    21:00 +8°C° 0,2 mm 1 m/S 628 mmHg 89%
    22:00 +7°C° 0,2 mm 1 m/S 628 mmHg 93%
    23:00 +7°C° 0 mm 1 m/S 628 mmHg 93%

    26 Juli, Mittwoch

    Zeit Temperatur Niederschläge Wind Luftdruck Luftfeuchtigkeit
    00:00 +7°C° 0 mm 1 m/S 628 mmHg 93%
    01:00 +6°C° 0 mm 1 m/S 628 mmHg 94%
    02:00 +6°C° 0,1 mm 1 m/S 627 mmHg 94%
    03:00 +6°C° 0,1 mm 1 m/S 627 mmHg 94%
    04:00 +6°C° 0,1 mm 1 m/S 627 mmHg 94%
    05:00 +6°C° 0,3 mm 1 m/S 627 mmHg 92%
    06:00 +7°C° 0,3 mm 1 m/S 628 mmHg 91%
    07:00 +8°C° 0,3 mm 1 m/S 628 mmHg 89%
    08:00 +9°C° 0,2 mm 1 m/S 629 mmHg 85%
    09:00 +9°C° 0,2 mm 2 m/S 629 mmHg 81%
    10:00 +10°C° 0,2 mm 2 m/S 629 mmHg 78%
    11:00 +12°C° 0,3 mm 2 m/S 630 mmHg 74%
    12:00 +13°C° 0,3 mm 2 m/S 630 mmHg 71%
    13:00 +13°C° 0,3 mm 3 m/S 631 mmHg 68%
    14:00 +13°C° 0,3 mm 3 m/S 631 mmHg 70%
    15:00 +13°C° 0,3 mm 3 m/S 631 mmHg 72%
    16:00 +13°C° 0,3 mm 3 m/S 631 mmHg 74%
    17:00 +12°C° 0,4 mm 3 m/S 631 mmHg 79%
    18:00 +12°C° 0,4 mm 2 m/S 631 mmHg 84%
    19:00 +10°C° 0,4 mm 2 m/S 631 mmHg 89%
    20:00 +9°C° 0,6 mm 2 m/S 631 mmHg 91%
    21:00 +9°C° 0,6 mm 2 m/S 632 mmHg 93%
    22:00 +8°C° 0,6 mm 2 m/S 632 mmHg 95%
    23:00 +8°C° 0,3 mm 2 m/S 632 mmHg 96%

    27 Juli, Donnerstag

    Zeit Temperatur Niederschläge Wind Luftdruck Luftfeuchtigkeit
    00:00 +8°C° 0,3 mm 2 m/S 632 mmHg 96%
    01:00 +8°C° 0,3 mm 2 m/S 632 mmHg 96%
    02:00 +8°C° 0,3 mm 2 m/S 632 mmHg 96%
    03:00 +8°C° 0,3 mm 2 m/S 632 mmHg 96%
    04:00 +8°C° 0,3 mm 2 m/S 632 mmHg 96%
    05:00 +8°C° 0,2 mm 2 m/S 633 mmHg 95%
    06:00 +8°C° 0,2 mm 2 m/S 633 mmHg 94%
    07:00 +9°C° 0,2 mm 2 m/S 633 mmHg 93%
    08:00 +10°C° 0,1 mm 2 m/S 634 mmHg 86%
    09:00 +13°C° 0,1 mm 2 m/S 634 mmHg 80%
    10:00 +15°C° 0,1 mm 1 m/S 635 mmHg 73%
    11:00 +16°C° 0 mm 2 m/S 635 mmHg 68%
    12:00 +17°C° 0 mm 2 m/S 636 mmHg 62%
    13:00 +18°C° 0 mm 2 m/S 636 mmHg 57%
    14:00 +18°C° 0 mm 2 m/S 636 mmHg 58%
    15:00 +18°C° 0 mm 2 m/S 636 mmHg 59%
    16:00 +18°C° 0 mm 2 m/S 636 mmHg 60%
    17:00 +17°C° 0,1 mm 2 m/S 636 mmHg 67%
    18:00 +16°C° 0,1 mm 2 m/S 635 mmHg 73%
    19:00 +15°C° 0,1 mm 2 m/S 635 mmHg 80%
    20:00 +14°C° 0 mm 1 m/S 635 mmHg 85%
    21:00 +12°C° 0 mm 1 m/S 635 mmHg 90%
    22:00 +11°C° 0 mm 1 m/S 635 mmHg 95%
    23:00 +10°C° 0 mm 1 m/S 635 mmHg 94%

    28 Juli, Freitag

    Zeit Temperatur Niederschläge Wind Luftdruck Luftfeuchtigkeit
    00:00 +10°C° 0 mm 1 m/S 635 mmHg 94%
    01:00 +9°C° 0 mm 1 m/S 635 mmHg 94%
    02:00 +9°C° 0 mm 1 m/S 635 mmHg 93%
    03:00 +9°C° 0 mm 1 m/S 635 mmHg 92%
    04:00 +9°C° 0 mm 1 m/S 634 mmHg 90%
    05:00 +11°C° 0 mm 1 m/S 635 mmHg 84%
    06:00 +12°C° 0 mm 1 m/S 636 mmHg 77%
    07:00 +14°C° 0 mm 1 m/S 637 mmHg 70%
    08:00 +16°C° 0 mm 1 m/S 638 mmHg 62%
    09:00 +19°C° 0 mm 1 m/S 638 mmHg 53%
    10:00 +21°C° 0 mm 1 m/S 639 mmHg 45%
    11:00 +22°C° 0 mm 1 m/S 639 mmHg 44%
    12:00 +23°C° 0 mm 1 m/S 639 mmHg 43%
    13:00 +24°C° 0 mm 2 m/S 639 mmHg 42%
    14:00 +24°C° 0 mm 2 m/S 639 mmHg 45%
    15:00 +23°C° 0 mm 2 m/S 639 mmHg 49%
    16:00 +23°C° 0 mm 2 m/S 638 mmHg 53%
    17:00 +20°C° 0,1 mm 2 m/S 638 mmHg 61%
    18:00 +20°C° 0,1 mm 1 m/S 638 mmHg 70%
    19:00 +19°C° 0,1 mm 1 m/S 638 mmHg 79%
    20:00 +16°C° 0 mm 1 m/S 637 mmHg 84%
    21:00 +14°C° 0 mm 1 m/S 637 mmHg 89%
    22:00 +13°C° 0 mm 1 m/S 637 mmHg 94%
    23:00 +13°C° 0 mm 1 m/S 637 mmHg 94%
    Mehr zeigen